Retour au catalogue

QIANFAN-219

ActifCommunicationsPO
NORAD 69848·PAYLOAD·🇨🇳 China

Lancé Jul 5, 2026 depuis Wenchang Space Launch Site

Loading…

Prochains Passages (prochaines 24 heures)

TLE

FraisSource: Space-Track

Époque: Sep 14, 2026, 11:31 UTC

1 69848U 26155A   26257.48004966 -.01781364  00000-0 -28090+1 0  9994
2 69848  89.0073  54.3068 0040196  31.8106 328.5463 13.53788428  9929

Suivez QIANFAN-219 en temps réel avec AllMySat

Download on the App Store